[[{"header":{"parameterUnit":"m.s-1","parameterCategory":1,"la1":30.2991,"la2":30.254,"lo1":-89.0895,"lo2":-89.0444,"dy":0.0017,"dx":0.0017,"nx":28,"ny":28,"refTime":"2025-05-15T21:00:00:Z","depth":0,"parameterNumber":2,"parameterNumberName":"U-component_of_WINDS"},"data":[0,0,0,0,0,0,0,0,0,0,0,0,0,0,0,0,0,0,0,0,0,0,0,0,0,0,0,0,0,0,0,0,0,0,0,0,0,0,0,0,0,0,0,0,0,0,0,0,0,0,0,0,0,0,0,0,0,0,-1.1437,-1.1437,0,-1.1426,-1.1426,-1.1425,-1.1409,-1.1408,-1.1408,-1.1408,-1.1395,-1.1395,-1.1395,0,0,0,0,0,0,0,0,0,0,0,0,0,-1.1444,-1.1444,-1.1437,-1.1437,-1.1437,-1.1426,-1.1425,-1.1425,-1.1409,-1.1408,-1.1408,-1.1408,-1.1395,-1.1395,-1.1395,0,0,0,0,0,0,0,0,0,0,0,0,0,-1.1437,-1.1444,-1.1437,-1.1427,-1.1426,-1.1426,-1.1425,-1.1425,-1.1409,-1.1408,-1.1408,-1.1407,-1.1395,-1.1395,-1.1395,-1.1404,0,0,-1.1395,-1.1395,0,0,0,0,0,0,0,0,-1.1438,-1.1437,-1.1429,-1.1428,-1.1427,-1.1418,-1.1423,-1.1418,-1.1409,-1.1415,-1.1408,-1.1407,-1.1403,-1.1403,-1.1401,-1.1403,-1.1402,-1.1395,-1.1395,-1.1395,-1.1395,0,0,0,0,0,0,0,-1.1438,-1.1438,-1.1432,-1.1428,-1.1427,-1.1423,-1.1422,-1.1422,-1.1412,-1.1415,-1.1413,-1.1412,-1.1403,-1.1401,-1.1401,-1.1402,-1.1395,-1.1395,-1.1395,-1.1395,-1.141,-1.1411,0,0,0,0,0,0,-1.144,-1.1438,-1.1433,-1.1432,-1.1431,-1.1423,-1.1422,-1.1421,-1.1412,-1.141,-1.1413,-1.1412,-1.1402,-1.1401,-1.14,-1.1409,-1.1395,-1.1395,-1.1395,-1.141,-1.141,-1.1411,0,0,0,0,0,0,-1.144,-1.144,-1.1433,-1.1435,-1.1434,-1.1424,-1.1423,-1.1421,-1.142,-1.141,-1.1408,-1.1413,-1.1401,-1.1401,-1.1403,-1.1408,-1.1395,-1.1395,-1.1409,-1.141,-1.1411,-1.1427,0,0,0,0,0,0,-1.1441,-1.144,-1.1443,-1.1435,-1.1434,-1.1436,-1.1424,-1.1421,-1.142,-1.1418,-1.141,-1.1409,-1.1401,-1.1403,-1.1403,-1.1408,-1.1395,-1.1409,-1.141,-1.141,-1.1426,-1.1428,-1.143,0,0,0,0,0,-1.1441,-1.1448,-1.1443,-1.1443,-1.1437,-1.1436,-1.1436,-1.1427,-1.1421,-1.1423,-1.1417,-1.1409,-1.1408,-1.1404,-1.1403,-1.1408,-1.1408,-1.1409,-1.141,-1.1425,-1.1427,-1.143,0,0,0,0,0,0,-1.1457,-1.1447,-1.1441,-1.1446,-1.1442,-1.1434,-1.1437,-1.143,-1.1428,-1.1426,-1.1415,-1.1414,-1.1417,-1.1413,-1.1408,-1.1416,-1.1407,-1.1408,-1.1418,-1.1421,-1.1423,-1.1423,-1.1395,0,0,0,0,0,-1.1461,-1.1461,-1.1452,-1.1457,-1.1456,-1.1447,-1.1446,-1.144,-1.1435,-1.1433,-1.1427,-1.1423,-1.1422,-1.1421,-1.142,-1.1426,-1.1423,-1.1429,-1.1431,-1.1433,-1.1433,-1.1436,-1.1438,-1.1414,-1.1414,-1.1414,0,0,-1.1469,-1.1464,-1.1464,-1.146,-1.1457,-1.1457,-1.1445,-1.1446,-1.1446,-1.1433,-1.1435,-1.1431,-1.1426,-1.143,-1.1431,-1.1426,-1.144,-1.1434,-1.1436,-1.1435,-1.1437,-1.1439,-1.1441,-1.1415,-1.1415,-1.1415,0,0,-1.1484,-1.148,-1.1483,-1.148,-1.1475,-1.1469,-1.147,-1.1463,-1.1459,-1.1461,-1.1451,-1.1452,-1.145,-1.1446,-1.1444,-1.1459,-1.1451,-1.1459,-1.1469,-1.1472,-1.1474,-1.1475,-1.148,-1.1481,-1.146,-1.146,-1.146,0,-1.1494,-1.1494,-1.1486,-1.1488,-1.1486,-1.1475,-1.1478,-1.1476,-1.147,-1.1469,-1.1464,-1.1462,-1.1458,-1.146,-1.1464,-1.1463,-1.1464,-1.1459,-1.1474,-1.1476,-1.1477,-1.1481,-1.1483,-1.1461,-1.1461,-1.146,-1.146,0,-1.1508,-1.1508,-1.1512,-1.1507,-1.1506,-1.1508,-1.15,-1.15,-1.1494,-1.1489,-1.1491,-1.1486,-1.1483,-1.1483,-1.1477,-1.1485,-1.1483,-1.1476,-1.1467,-1.148,-1.1484,-1.1486,-1.1462,-1.1462,-1.1461,-1.1461,0,0,-1.153,-1.1522,-1.1523,-1.152,-1.1514,-1.1514,-1.1517,-1.1514,-1.1514,-1.1511,-1.1512,-1.1512,-1.1506,-1.1504,-1.1497,-1.15,-1.1511,-1.1493,-1.1493,-1.1496,-1.1519,-1.1523,-1.1525,-1.1507,-1.1507,-1.1507,-1.1519,0,-1.1543,-1.1546,-1.1539,-1.1544,-1.1544,-1.1534,-1.1536,-1.1532,-1.1528,-1.1527,-1.1522,-1.1522,-1.1514,-1.1513,-1.1515,-1.1509,-1.1515,-1.1509,-1.1507,-1.1507,-1.1507,-1.1527,-1.1531,-1.1543,-1.1521,-1.1521,-1.1521,0,-1.1558,-1.1556,-1.1561,-1.1554,-1.1554,-1.1556,-1.1553,-1.1553,-1.1549,-1.1546,-1.1544,-1.1537,-1.1538,-1.1531,-1.1532,-1.1528,-1.1527,-1.1524,-1.1524,-1.1523,-1.1514,-1.1525,-1.1546,-1.1548,-1.1523,-1.1523,-1.1523,0,-1.1573,-1.1572,-1.1574,-1.1573,-1.1566,-1.1567,-1.1564,-1.156,-1.1559,-1.1557,-1.1556,-1.1554,-1.1553,-1.1551,-1.1544,-1.1539,-1.1547,-1.1538,-1.1543,-1.1543,-1.1544,-1.1544,-1.1564,-1.1545,-1.1545,-1.1545,-1.1545,0,-1.1587,-1.159,-1.1581,-1.1582,-1.1586,-1.1578,-1.1581,-1.1577,-1.1574,-1.1574,-1.1566,-1.1567,-1.1558,-1.1557,-1.1552,-1.1554,-1.1554,-1.155,-1.1549,-1.155,-1.1551,-1.1549,-1.1547,-1.1546,-1.1546,-1.1546,-1.1546,0,-1.1604,-1.1598,-1.16,-1.1594,-1.1592,-1.1595,-1.1589,-1.159,-1.1586,-1.1587,-1.1586,-1.1579,-1.1578,-1.1571,-1.1569,-1.1565,-1.1569,-1.1566,-1.157,-1.1569,-1.1574,-1.1573,-1.1593,-1.1595,-1.1576,-1.1576,-1.1576,0,-1.1613,-1.1615,-1.1609,-1.1609,-1.1607,-1.1607,-1.1606,-1.1598,-1.1598,-1.1594,-1.1595,-1.1594,-1.1592,-1.1592,-1.1586,-1.1584,-1.1581,-1.1588,-1.158,-1.1582,-1.1579,-1.1579,-1.1579,-1.1589,-1.1589,-1.1589,-1.1589,0,-1.1629,-1.1626,-1.1625,-1.1623,-1.1623,-1.1621,-1.1618,-1.1619,-1.1611,-1.1611,-1.161,-1.1609,-1.1607,-1.1605,-1.1602,-1.1599,-1.1593,-1.1592,-1.1593,-1.1594,-1.1596,-1.1594,-1.1573,-1.1591,-1.1591,-1.1591,-1.1591,-1.1591,-1.1641,-1.1643,-1.1639,-1.1638,-1.1636,-1.1634,-1.1635,-1.163,-1.163,-1.1627,-1.1624,-1.1623,-1.162,-1.1615,-1.1613,-1.1613,-1.1609,-1.161,-1.1611,-1.1611,-1.1611,-1.1597,-1.1612,-1.1612,-1.1612,-1.1612,-1.1612,0,-1.1656,-1.1653,-1.1653,-1.165,-1.165,-1.1645,-1.1642,-1.1642,-1.1642,-1.1639,-1.1638,-1.1637,-1.1636,-1.1631,-1.1629,-1.1629,-1.1626,-1.1629,-1.1628,-1.1628,-1.1615,-1.1614,-1.1632,-1.1632,-1.1632,-1.1632,-1.1632,-1.1632,-1.1664,-1.1666,-1.1662,-1.1663,-1.1661,-1.166,-1.1659,-1.1658,-1.1655,-1.1655,-1.1654,-1.1651,-1.1647,-1.1645,-1.1644,-1.1642,-1.1641,-1.1645,-1.1642,-1.163,-1.1629,-1.1627,-1.1626,-1.1645,-1.1645,-1.1654,-1.1655,-1.1655]},{"header":{"parameterUnit":"m.s-1","parameterCategory":1,"la1":30.2991,"la2":30.254,"lo1":-89.0895,"lo2":-89.0444,"dy":0.0017,"dx":0.0017,"nx":28,"ny":28,"refTime":"2025-05-15T21:00:00:Z","depth":0,"parameterNumber":3,"parameterNumberName":"V-component_of_WINDS"},"data":[0,0,0,0,0,0,0,0,0,0,0,0,0,0,0,0,0,0,0,0,0,0,0,0,0,0,0,0,0,0,0,0,0,0,0,0,0,0,0,0,0,0,0,0,0,0,0,0,0,0,0,0,0,0,0,0,0,0,5.4511,5.4511,0,5.453,5.453,5.453,5.4477,5.4475,5.4474,5.4472,5.4491,5.4493,5.4495,0,0,0,0,0,0,0,0,0,0,0,0,0,5.443,5.4432,5.451,5.4511,5.4511,5.453,5.453,5.453,5.4477,5.4475,5.4473,5.4471,5.449,5.4492,5.4495,0,0,0,0,0,0,0,0,0,0,0,0,0,5.4459,5.4432,5.451,5.4487,5.4485,5.453,5.453,5.453,5.4478,5.4475,5.4473,5.447,5.4489,5.4492,5.4495,5.4563,0,0,5.4504,5.4506,0,0,0,0,0,0,0,0,5.4457,5.4462,5.449,5.4489,5.4486,5.4498,5.4508,5.4541,5.4478,5.448,5.4472,5.4469,5.4495,5.4498,5.4507,5.4564,5.4565,5.4505,5.4507,5.4508,5.4509,0,0,0,0,0,0,0,5.4455,5.4461,5.4518,5.4491,5.4488,5.4476,5.4477,5.4514,5.4501,5.448,5.4476,5.4479,5.4494,5.4504,5.4507,5.4565,5.4505,5.4507,5.4509,5.451,5.4685,5.4687,0,0,0,0,0,0,5.4456,5.4459,5.4517,5.4519,5.4466,5.448,5.4481,5.4497,5.4501,5.4499,5.4481,5.4477,5.45,5.4503,5.4507,5.459,5.4508,5.4511,5.4512,5.4682,5.4685,5.4688,0,0,0,0,0,0,5.4455,5.4462,5.4517,5.4488,5.4494,5.4484,5.4502,5.4499,5.4509,5.4502,5.4499,5.4494,5.4498,5.4503,5.4551,5.459,5.4512,5.4515,5.4679,5.4683,5.4687,5.4755,0,0,0,0,0,0,5.4453,5.4462,5.4486,5.4489,5.4496,5.456,5.4504,5.4501,5.4514,5.4508,5.4513,5.4511,5.4496,5.4547,5.4554,5.4593,5.4517,5.4675,5.468,5.4685,5.4749,5.4761,5.4771,0,0,0,0,0,5.445,5.4504,5.4488,5.4495,5.4527,5.4562,5.4566,5.4548,5.4517,5.4543,5.454,5.4511,5.4585,5.4552,5.456,5.46,5.4672,5.4679,5.4685,5.4744,5.4759,5.4771,0,0,0,0,0,0,5.4504,5.4503,5.4486,5.4542,5.4553,5.4553,5.4584,5.4563,5.4582,5.4575,5.4552,5.4554,5.4607,5.4608,5.4572,5.4669,5.4623,5.4632,5.4666,5.4679,5.469,5.4689,5.452,0,0,0,0,0,5.4523,5.4551,5.4549,5.4599,5.4605,5.4594,5.4609,5.4595,5.4605,5.4608,5.4608,5.4619,5.4645,5.4662,5.4685,5.4749,5.4751,5.4781,5.4792,5.4801,5.4809,5.4847,5.4861,5.4709,5.4709,5.4709,0,0,5.4561,5.4564,5.4583,5.461,5.4616,5.4648,5.4598,5.4632,5.4656,5.4613,5.466,5.4661,5.4671,5.4729,5.4754,5.4731,5.4852,5.4809,5.4817,5.4819,5.4855,5.487,5.4882,5.4713,5.4713,5.4712,0,0,5.4647,5.4651,5.4695,5.4704,5.4716,5.4709,5.472,5.4725,5.4724,5.4771,5.4741,5.4769,5.4813,5.4823,5.4834,5.493,5.4906,5.4938,5.4996,5.5033,5.5045,5.5056,5.5093,5.5107,5.4946,5.4946,5.4946,0,5.4693,5.4739,5.472,5.4758,5.4772,5.4738,5.4784,5.4793,5.4811,5.4822,5.4796,5.4855,5.4859,5.4921,5.4945,5.4954,5.4967,5.4938,5.5045,5.5056,5.5065,5.5101,5.5114,5.495,5.495,5.4949,5.4949,0,5.4796,5.4829,5.4863,5.4885,5.4902,5.4944,5.4933,5.4954,5.4939,5.4936,5.4986,5.4991,5.5017,5.503,5.5015,5.5091,5.5077,5.5049,5.5003,5.5084,5.5117,5.513,5.4956,5.4954,5.4953,5.4952,0,0,5.4914,5.4928,5.4941,5.4953,5.4965,5.4991,5.5032,5.5059,5.5078,5.5093,5.5129,5.517,5.5145,5.5158,5.5144,5.5177,5.5258,5.5145,5.5145,5.5168,5.5346,5.5368,5.5384,5.5242,5.5244,5.5246,5.5346,0,5.5001,5.5073,5.506,5.513,5.5162,5.5133,5.517,5.5182,5.5182,5.5209,5.5208,5.5239,5.5202,5.521,5.5242,5.5241,5.5293,5.5234,5.5277,5.5278,5.5276,5.5401,5.5423,5.5517,5.5358,5.5361,5.5362,0,5.5111,5.5133,5.5208,5.522,5.5233,5.5266,5.5293,5.5319,5.5334,5.5332,5.5349,5.533,5.5374,5.5328,5.5389,5.5349,5.5367,5.537,5.5373,5.5377,5.5326,5.541,5.5546,5.5561,5.5382,5.538,5.5379,0,5.5193,5.5241,5.5293,5.5303,5.5318,5.5343,5.5351,5.5364,5.5382,5.5405,5.5417,5.5445,5.546,5.5482,5.5473,5.5439,5.5537,5.5489,5.5538,5.5538,5.5559,5.5558,5.5702,5.5568,5.5568,5.5568,5.5567,0,5.5292,5.5339,5.5331,5.5363,5.5416,5.5402,5.5456,5.5459,5.5473,5.5506,5.5481,5.5514,5.5499,5.553,5.5523,5.5577,5.5583,5.5584,5.5582,5.5587,5.5587,5.5598,5.5592,5.5571,5.5571,5.557,5.5569,0,5.5391,5.5387,5.5443,5.5454,5.5459,5.5498,5.5508,5.5539,5.5538,5.5581,5.5591,5.5589,5.5626,5.5619,5.5658,5.5654,5.5722,5.5711,5.5718,5.5716,5.5765,5.5762,5.5922,5.5944,5.5794,5.5796,5.5797,0,5.5455,5.5491,5.5508,5.553,5.554,5.5575,5.5595,5.5584,5.5606,5.5629,5.5658,5.5693,5.5721,5.5781,5.5784,5.5815,5.5805,5.586,5.581,5.5816,5.5809,5.5808,5.5813,5.587,5.5871,5.5873,5.5874,0,5.557,5.5568,5.5597,5.5629,5.5654,5.5678,5.5699,5.5718,5.5709,5.5736,5.5774,5.5796,5.5839,5.5875,5.5905,5.5913,5.5894,5.589,5.5903,5.5909,5.5913,5.5915,5.5747,5.5886,5.5885,5.5884,5.5883,5.5883,5.5655,5.5687,5.5706,5.5742,5.5758,5.578,5.5811,5.5816,5.5848,5.5883,5.5875,5.5919,5.5938,5.5977,5.599,5.6025,5.6005,5.6023,5.6028,5.6034,5.6041,5.5907,5.603,5.603,5.6029,5.6029,5.6029,0,5.577,5.5782,5.5816,5.5848,5.5877,5.5858,5.5882,5.5908,5.5947,5.5967,5.5996,5.6043,5.6079,5.6086,5.6121,5.6149,5.6141,5.6158,5.6157,5.616,5.6055,5.6042,5.6165,5.6165,5.6165,5.6164,5.6164,5.6164,5.5834,5.589,5.5891,5.5956,5.5967,5.6012,5.6028,5.6049,5.6065,5.6119,5.615,5.6155,5.6171,5.6208,5.6242,5.6243,5.6258,5.628,5.6278,5.618,5.6167,5.6154,5.6141,5.6283,5.6283,5.638,5.6381,5.6381]}]]